Theta_e
319 319 320 320 321 322 323 323 321 322 319 314 311 311 310 309 308 309 310 310 316 319 316 313 314 314 313 312 314 313 310 313 318 314 312 315 314 312 308 309 309 307 309 310 310 313 315 320 327 331 333 333 334 332 332 332 332 331 331 332 332 331 332 331 332 332 332 331 330 329 326 326 326 327 328 327 328 328 327 327 326 326 327 327 327
318 319 320 321 321 321 322 323 322 321 319 315 316 318 317 312 309 310 311 311 316 318 313 310 311 312 313 311 312 314 309 308 314 311 310 312 311 308 307 308 308 308 310 310 309 310 310 313 318 324 329 332 333 333 332 332 332 332 331 331 332 332 332 331 331 332 333 332 330 330 328 326 326 327 329 328 327 327 327 327 326 326 326 326 327
318 318 319 321 321 320 321 323 323 321 318 315 315 320 321 317 314 313 312 312 313 314 313 311 310 310 310 309 310 313 311 309 310 309 310 315 317 315 313 313 310 308 310 311 313 313 312 313 313 316 321 326 330 330 331 332 332 333 332 331 331 331 331 332 331 331 332 332 331 330 329 328 327 327 328 328 327 326 327 327 327 327 326 326 326
317 317 318 321 321 320 321 322 324 322 321 317 313 315 319 319 318 315 313 314 313 313 313 311 311 310 310 310 310 312 313 312 311 309 309 313 317 318 318 316 310 308 310 312 316 318 318 317 315 314 314 319 324 325 326 326 326 328 331 332 331 331 331 332 333 331 331 332 331 331 330 329 329 329 329 327 327 326 326 327 327 327 326 326 326
318 318 318 320 321 321 321 321 323 323 323 320 314 313 315 316 319 318 314 315 314 313 313 311 311 311 310 311 314 316 316 313 309 308 307 310 315 316 317 316 311 310 312 312 315 318 318 319 319 317 315 317 319 321 322 323 321 321 324 326 328 330 331 331 332 332 332 332 332 331 330 329 329 329 329 329 328 327 327 327 327 327 326 326 326
318 318 319 320 321 322 322 321 322 324 324 322 316 314 314 315 318 320 317 316 315 313 313 313 312 311 311 314 316 316 316 314 308 307 306 307 309 309 312 314 313 312 311 312 315 316 315 316 316 316 316 317 317 319 321 322 323 322 321 321 321 326 329 330 332 332 331 332 332 332 330 329 329 329 329 329 329 329 328 328 328 327 327 326 326
317 318 319 321 321 322 323 322 322 323 324 323 319 316 316 317 320 321 318 316 316 313 313 313 313 312 312 315 315 313 314 314 309 307 307 307 306 306 307 310 314 316 315 313 313 314 315 315 314 314 314 315 315 316 318 320 324 326 326 324 320 321 323 325 327 330 332 332 332 332 332 330 329 330 330 329 330 330 329 329 328 328 327 326 326
317 319 321 322 323 323 323 323 322 323 324 324 321 318 319 319 321 322 319 317 316 313 313 314 313 314 314 313 312 313 314 312 309 309 308 306 306 306 306 306 309 313 314 314 313 312 313 314 314 314 314 315 315 316 318 320 322 325 326 326 324 323 321 319 320 323 328 331 332 333 332 330 329 329 329 328 329 329 330 330 329 329 328 327 327
317 320 321 322 323 323 323 323 323 323 324 323 322 319 320 320 322 322 320 318 317 314 313 314 314 315 315 313 313 316 314 311 312 313 310 307 306 306 306 306 307 308 308 309 310 310 310 309 310 312 314 316 316 316 318 320 322 323 324 324 325 326 325 323 320 320 322 324 327 332 332 330 329 329 328 327 328 328 328 329 330 330 329 328 328
318 319 320 322 323 322 322 324 323 323 323 323 323 322 320 320 322 322 321 319 318 314 313 314 314 315 314 314 315 316 314 312 313 314 310 307 308 308 307 306 308 309 307 306 307 308 307 305 305 307 308 311 313 314 315 317 319 321 322 323 324 324 325 326 325 323 323 322 322 326 329 329 328 328 327 327 327 327 327 328 329 330 330 329 329
318 320 320 320 322 322 321 322 322 323 323 323 324 324 321 320 322 323 322 321 317 314 313 314 314 314 313 313 314 313 312 310 309 310 309 308 308 308 308 308 309 310 308 307 307 307 306 305 305 304 304 305 306 308 311 313 316 317 318 320 321 321 322 324 325 325 325 325 324 325 326 327 327 327 327 327 327 327 327 328 328 328 329 330 329
318 320 321 320 321 322 321 321 322 322 323 324 325 324 321 319 321 323 323 321 317 314 313 314 313 314 314 313 313 312 311 310 308 308 309 307 307 307 307 309 311 311 311 310 310 310 308 306 305 305 305 304 304 305 306 309 314 317 318 317 317 318 319 321 324 325 325 325 326 326 325 326 327 327 328 329 328 327 327 327 326 326 327 329 329
318 319 320 319 321 322 321 321 321 322 322 322 325 325 322 318 319 321 320 320 318 314 314 314 313 314 314 314 313 313 312 311 309 308 308 307 306 308 308 307 308 309 310 310 310 308 306 305 305 305 305 305 304 304 304 304 308 313 316 317 317 317 319 320 322 324 326 325 325 326 326 326 326 327 330 330 328 327 326 325 325 325 326 328 328
318 319 319 319 320 321 321 321 321 321 321 323 325 324 321 318 317 317 317 318 318 316 314 315 314 314 314 314 313 313 312 311 310 308 308 307 307 307 307 307 306 306 307 307 307 306 305 305 305 305 305 304 304 304 304 303 303 305 310 314 316 316 317 318 319 321 323 325 326 326 327 327 326 328 330 330 328 327 327 326 326 326 327 328 327
317 317 318 319 320 320 321 321 321 321 322 324 325 322 319 316 315 315 316 318 319 317 314 315 315 314 314 314 313 313 312 311 310 309 308 308 307 307 306 306 306 306 306 306 306 305 305 305 304 304 304 304 304 303 302 303 302 303 304 309 312 312 313 315 315 317 319 322 325 326 326 326 327 328 329 330 329 328 327 327 327 327 328 328 327
317 317 316 319 320 320 321 321 321 322 323 323 323 320 317 315 313 314 315 317 318 317 314 314 314 313 313 313 312 312 312 311 310 309 308 308 307 307 306 306 306 306 306 306 305 305 305 304 304 304 303 303 303 303 302 301 301 302 304 306 308 309 311 313 314 315 316 318 321 323 325 326 327 327 328 329 329 329 328 327 327 327 328 327 327
316 316 316 319 321 321 321 322 322 323 324 324 322 319 314 314 314 313 314 318 318 316 314 313 313 312 312 311 311 312 312 311 310 309 308 308 308 307 307 306 306 306 306 306 305 305 304 304 303 303 302 302 303 303 303 302 301 301 303 305 307 308 309 312 314 315 315 316 317 319 322 324 325 326 327 328 328 329 329 328 328 328 327 326 325
315 315 315 318 321 321 322 322 322 323 324 325 324 320 316 313 314 313 313 315 316 314 312 312 312 311 311 310 311 311 311 311 310 309 308 308 308 307 307 307 306 306 306 305 305 305 304 304 303 303 303 304 305 305 305 305 304 303 302 302 306 311 313 314 315 316 315 316 317 318 319 321 322 324 325 326 327 328 328 328 328 328 328 327 325
315 315 315 315 317 320 321 322 322 322 323 324 325 324 321 316 313 312 311 312 313 313 311 311 311 311 310 310 310 311 311 311 310 309 308 308 308 307 307 307 306 306 306 305 305 304 304 304 303 303 303 305 307 308 308 308 308 308 306 303 303 309 314 315 315 316 317 318 318 318 318 318 319 320 323 325 326 326 327 327 327 327 328 327 326
315 315 315 314 315 317 319 320 320 321 321 322 324 326 324 319 312 311 311 312 314 314 311 311 311 310 310 310 310 310 310 311 310 309 309 308 308 307 307 306 306 306 306 305 304 304 304 304 304 304 303 304 307 308 309 309 309 309 309 307 304 305 311 315 314 314 316 319 319 319 318 318 318 318 319 322 325 326 326 326 327 327 326 325 325
315 315 315 314 314 315 317 319 319 319 319 320 322 324 324 319 312 311 311 312 315 314 312 311 311 310 310 310 309 310 310 310 310 309 309 308 307 307 307 306 306 306 305 304 304 304 304 305 305 305 305 304 305 307 308 309 309 309 309 309 308 307 309 313 315 315 316 318 319 320 319 319 319 319 319 319 320 323 325 326 327 327 327 325 325
315 315 314 315 315 315 316 318 318 318 318 320 321 321 320 316 311 311 311 311 313 314 312 311 311 310 310 310 310 310 310 310 310 309 309 308 307 307 306 306 306 305 305 304 304 304 305 305 305 305 305 305 306 306 307 308 309 309 309 309 310 310 310 311 313 314 316 317 318 319 319 320 320 321 321 320 319 321 323 325 326 327 327 327 326
315 315 315 315 315 315 315 316 317 318 319 320 320 319 316 313 311 311 311 310 313 314 313 312 312 310 310 310 310 311 311 310 310 309 308 307 307 306 306 305 305 305 304 304 305 305 305 305 305 305 305 306 306 306 307 307 308 308 309 309 309 310 311 310 310 311 313 315 317 318 318 319 320 320 321 321 321 321 321 323 324 325 325 326 327
315 315 314 315 315 315 315 315 316 320 321 320 319 317 315 313 311 312 311 310 313 316 315 313 312 311 311 310 311 311 311 311 310 309 308 307 306 306 305 305 304 305 305 305 305 306 305 305 305 305 305 306 306 306 307 307 307 307 308 308 308 308 309 310 310 310 310 311 314 316 318 318 319 319 320 321 321 322 322 322 323 323 323 324 326
315 315 315 315 314 315 315 314 316 321 322 321 319 318 315 313 312 312 311 311 314 317 316 314 313 312 311 311 311 312 312 311 310 309 308 307 306 306 305 304 305 305 305 305 306 306 306 305 305 305 305 306 306 306 306 307 307 307 307 308 308 308 308 309 309 310 311 311 312 313 315 317 318 319 320 320 321 321 322 322 323 323 322 323 325
315 315 315 315 315 314 315 314 315 318 320 320 319 318 316 315 313 312 312 311 314 316 316 314 314 313 313 312 312 312 312 311 310 309 308 307 306 305 305 305 305 305 305 305 306 306 305 305 305 306 305 305 306 306 306 306 307 307 307 307 308 308 308 308 309 309 310 311 311 311 313 315 317 318 318 319 320 321 321 322 322 322 322 323 325
315 315 315 315 315 315 315 314 314 316 318 319 319 318 317 317 315 313 313 312 313 315 314 314 314 314 314 313 313 312 312 311 310 309 309 307 306 306 305 305 305 305 306 305 305 305 305 304 305 305 305 305 305 305 306 306 306 306 306 307 307 308 308 308 308 308 309 309 310 311 311 312 314 316 317 317 318 320 321 322 322 322 323 323 325
315 315 314 314 315 315 316 315 314 315 316 317 318 318 317 318 317 315 313 312 312 313 313 314 314 314 314 314 313 313 312 310 310 309 308 307 306 305 305 305 305 305 305 305 304 304 304 304 305 305 305 305 305 305 305 305 305 306 306 306 306 307 307 308 308 308 309 309 309 310 311 311 312 314 316 317 317 318 320 321 322 321 322 323 324
313 315 315 314 314 314 315 315 316 315 315 314 316 318 317 317 317 314 313 312 312 311 313 314 313 313 314 313 313 312 311 310 310 309 307 305 305 304 305 305 305 305 304 304 304 304 304 304 304 304 305 305 305 305 305 305 305 305 305 306 306 307 307 307 307 308 308 309 309 309 310 310 310 311 313 316 317 317 318 319 321 322 322 323 323
311 313 315 314 314 314 314 315 316 316 314 313 315 316 316 317 317 315 313 313 310 310 311 312 313 313 313 313 312 311 310 309 308 307 305 305 305 305 305 305 304 304 304 303 303 303 304 304 304 304 304 304 304 304 304 304 304 304 305 305 305 305 306 306 307 307 307 308 308 308 309 310 310 310 310 313 315 317 317 317 319 321 322 322 323
310 312 314 314 314 314 314 314 315 315 315 314 315 315 315 316 316 314 313 312 310 308 309 311 312 312 312 311 310 309 309 308 307 306 306 305 305 305 305 304 304 304 303 303 303 303 302 302 302 302 302 303 303 303 303 304 304 304 304 304 304 304 304 305 305 305 306 307 307 308 308 309 309 310 310 310 312 314 316 316 316 318 321 321 321
312 311 312 314 314 313 314 314 314 315 316 316 315 314 314 315 314 314 314 313 311 309 309 311 312 311 311 310 309 309 309 308 307 306 306 306 305 305 304 304 303 303 303 302 302 302 301 301 300 300 301 301 301 302 302 302 303 303 303 303 303 303 303 303 303 303 304 305 305 306 307 308 308 309 310 310 310 312 314 315 315 315 318 321 321
313 312 312 314 315 314 314 314 313 314 316 315 314 313 313 313 313 313 313 314 313 311 310 311 311 310 309 309 309 308 308 307 306 306 305 305 305 304 304 303 302 302 302 302 301 301 300 300 299 299 299 299 299 300 300 301 301 302 302 302 302 302 302 302 302 302 302 303 303 304 304 305 306 308 309 310 310 311 313 315 315 314 314 317 320
312 313 313 313 313 314 313 313 313 315 315 314 312 312 312 312 313 313 312 313 312 311 310 310 309 309 309 308 308 307 306 306 306 305 305 305 304 304 303 302 302 302 301 301 300 300 300 299 299 298 298 298 298 299 299 299 299 300 300 301 301 301 301 301 301 301 301 301 302 302 302 303 304 305 306 308 309 310 312 314 316 316 315 314 316
311 312 313 312 312 313 313 313 315 315 314 313 311 311 311 311 312 312 311 311 311 310 309 309 309 308 308 307 307 306 305 305 305 305 304 304 304 303 302 302 302 301 301 300 300 300 299 298 298 298 298 298 298 298 298 298 298 298 298 299 299 300 300 300 300 300 300 300 301 301 301 301 302 302 303 305 307 309 311 313 316 317 317 316 315
311 312 312 311 312 313 312 313 315 315 313 311 311 311 310 311 311 311 310 310 309 309 309 308 308 308 307 307 306 305 305 304 304 304 304 304 303 303 302 302 301 301 300 300 300 299 298 298 298 298 298 298 298 298 297 298 297 298 297 298 298 298 298 299 299 299 299 299 299 300 300 300 301 301 301 302 304 307 309 312 315 317 318 318 317
310 312 312 312 312 313 312 312 313 313 311 310 310 310 310 310 311 310 309 309 308 308 308 308 308 308 307 305 305 304 304 304 304 304 304 303 303 302 302 301 301 300 300 299 299 299 298 297 297 297 297 297 297 297 297 297 297 297 297 297 297 297 297 297 298 298 298 298 298 299 299 300 300 300 301 301 302 303 307 311 313 315 317 318 318
310 311 312 312 313 312 312 312 313 312 310 310 310 310 310 310 310 309 308 308 308 308 307 307 307 306 305 305 304 303 303 303 303 304 303 303 302 302 301 301 300 299 299 299 298 298 297 297 297 297 297 296 296 296 296 296 296 296 296 296 296 296 296 296 297 297 297 297 298 298 298 299 299 300 300 300 300 301 303 307 311 313 315 317 318
311 312 311 311 312 313 312 313 312 311 311 310 310 310 310 310 309 308 308 307 307 307 307 307 306 305 304 303 302 302 302 303 303 303 303 302 302 301 300 300 299 299 298 298 298 297 297 297 296 296 296 296 295 295 295 295 295 295 295 295 295 295 295 295 296 296 296 296 297 297 298 298 299 299 299 300 300 300 301 303 307 311 312 314 317
313 312 311 310 312 313 313 312 311 311 311 310 310 310 310 310 309 308 307 307 307 307 306 305 305 303 303 302 302 302 302 302 302 302 302 302 301 300 300 299 299 298 298 298 297 297 296 296 296 295 295 295 295 295 295 295 294 294 294 294 294 294 295 295 295 296 296 296 296 297 297 297 298 298 299 299 299 300 300 301 304 307 310 313 315
311 311 311 311 311 311 311 311 310 310 310 309 310 310 309 308 308 307 307 307 307 306 306 304 303 303 302 302 302 302 302 301 301 301 301 301 300 300 299 299 298 298 298 297 296 296 296 295 295 294 294 294 294 294 294 294 293 293 293 293 293 294 294 295 295 296 296 296 296 296 297 297 297 298 298 299 298 299 300 300 301 305 309 312 315
309 310 311 311 310 309 310 310 310 310 309 309 309 309 308 307 307 307 307 307 306 306 304 303 303 302 302 302 302 302 301 301 301 301 301 300 300 299 299 298 298 297 297 296 296 295 295 295 294 293 293 293 293 293 293 293 293 293 293 293 293 293 293 294 295 296 296 296 296 296 296 297 297 298 298 298 299 299 299 300 300 303 308 313 315
309 309 309 310 309 309 309 310 309 309 309 309 309 308 307 307 307 307 307 306 305 304 303 302 302 302 302 302 301 301 301 300 300 300 300 299 299 298 298 298 297 296 296 295 295 295 294 294 293 293 292 292 292 292 293 293 293 293 293 292 293 293 293 294 295 295 295 296 296 296 296 296 297 297 298 298 299 299 299 300 301 302 306 312 315
309 308 307 307 308 308 309 309 309 308 308 309 308 308 307 307 307 307 306 306 305 303 302 302 302 302 301 301 300 300 299 299 299 299 298 298 298 298 298 297 295 295 294 294 294 294 293 293 293 292 292 292 292 292 292 293 293 293 292 292 292 293 293 294 294 295 295 295 295 296 296 297 297 297 298 299 299 299 300 302 303 303 305 310 315
307 308 307 307 307 308 309 309 308 308 309 309 308 307 307 307 307 306 305 305 303 302 302 302 302 301 300 300 299 299 298 298 298 298 298 298 298 298 297 296 295 294 294 293 293 293 293 293 293 292 292 291 291 291 291 292 293 292 292 292 292 292 293 293 293 294 295 295 295 296 297 297 297 298 299 299 299 300 301 303 305 305 305 308 313
306 307 308 308 307 307 309 310 308 307 308 308 307 307 307 307 306 306 304 303 303 302 302 302 301 300 300 299 299 298 298 299 298 298 298 298 297 297 296 296 295 294 294 293 293 293 293 293 292 292 292 291 291 290 291 292 292 292 292 292 292 292 293 293 294 294 295 295 296 297 298 299 299 299 299 300 300 301 303 304 306 307 306 307 312
307 308 308 308 307 307 309 309 307 307 308 308 307 307 306 306 305 304 304 303 302 302 302 301 300 300 300 299 299 299 299 299 299 299 298 298 297 297 297 296 295 294 294 293 292 292 293 292 292 292 291 291 290 290 291 291 291 291 292 292 292 293 294 295 295 297 297 297 298 299 299 300 300 300 300 300 300 302 303 305 307 308 307 308 311
307 308 307 307 307 307 308 308 307 307 307 307 307 306 306 305 304 303 303 302 301 301 301 301 300 300 300 299 300 300 300 300 299 299 298 298 297 297 297 296 295 295 294 293 292 292 293 292 292 292 291 290 290 290 291 291 291 291 292 292 292 293 294 295 297 298 299 299 299 300 300 301 301 301 300 300 301 302 305 307 309 310 309 309 311
307 307 307 307 307 307 308 308 307 307 306 306 305 306 305 305 304 303 303 302 301 301 301 301 301 301 300 300 300 300 300 300 299 299 298 298 297 297 297 296 295 294 294 292 292 292 293 292 291 291 290 290 290 290 291 291 291 292 292 292 293 293 295 296 298 299 300 300 300 300 301 302 302 302 301 301 302 303 305 309 311 312 311 311 312
306 307 307 307 307 307 308 307 307 306 306 305 305 305 305 305 304 303 302 302 301 301 302 301 301 301 301 300 300 300 300 300 299 299 298 298 297 297 296 295 295 294 294 292 291 292 292 291 291 291 290 290 290 290 290 291 291 292 292 293 293 294 295 297 299 300 300 300 301 301 302 303 303 303 302 302 303 303 305 310 314 314 313 313 314
306 306 306 307 307 307 307 308 307 306 306 305 305 305 304 304 303 303 302 302 302 302 302 302 301 301 301 300 300 300 300 300 299 299 298 297 297 297 296 295 294 294 294 291 291 292 292 291 291 291 290 290 290 290 291 291 291 292 293 293 294 295 296 298 300 301 302 302 302 303 304 304 304 304 304 304 305 305 307 311 315 314 314 314 314
Wind_Speed
17 21 27 27 25 25 23 22 21 20 18 17 18 16 14 12 9 7 6 4 6 7 6 7 7 4 4 6 5 4 5 5 3 5 2 6 9 9 8 9 12 13 13 14 17 18 17 17 18 18 20 20 19 18 20 21 21 20 20 18 19 21 21 19 18 17 18 18 12 9 13 14 13 14 16 18 19 19 19 21 21 20 20 19 18
15 19 27 30 29 28 27 25 24 22 21 21 20 18 16 14 12 10 8 7 7 8 8 7 6 5 4 3 5 0 4 7 4 8 7 1 2 4 7 8 11 11 10 13 14 15 15 16 18 17 18 20 20 18 18 19 20 23 23 23 22 22 23 22 20 18 17 18 15 11 14 17 17 15 16 17 19 20 20 22 23 23 23 21 19
16 17 23 31 32 30 29 26 25 24 23 23 22 20 19 16 15 12 10 9 9 8 7 6 5 4 3 0 3 2 3 10 11 14 11 5 3 0 3 6 10 10 10 10 9 11 12 13 16 17 16 17 18 18 19 19 18 21 23 24 25 25 25 24 23 23 20 17 17 15 14 15 16 16 19 19 19 20 20 20 23 23 23 22 20
19 18 20 30 33 31 30 28 26 26 24 24 23 22 21 19 17 14 12 12 10 9 7 6 5 3 2 1 3 2 4 8 10 11 10 6 3 1 3 6 7 7 10 10 8 8 9 10 12 15 16 15 15 16 18 18 17 19 22 23 24 26 29 27 24 24 24 21 20 19 16 15 16 16 19 21 21 21 20 21 24 24 22 22 23
17 17 20 27 33 30 30 28 28 27 26 26 25 23 22 20 18 16 14 13 12 10 9 8 5 5 3 1 5 7 6 4 5 8 10 7 3 0 4 7 6 4 8 11 11 10 11 11 10 12 14 15 15 14 15 16 16 18 22 23 23 26 30 30 26 24 25 26 26 24 19 15 15 15 15 20 22 22 21 23 26 24 22 23 24
13 15 16 23 28 28 30 29 28 29 28 27 25 24 23 21 19 17 16 14 13 12 10 9 7 7 3 1 2 4 3 3 5 7 9 9 7 5 3 5 4 3 4 7 10 12 13 13 13 13 13 14 15 15 15 13 13 15 17 19 20 24 28 29 30 30 29 29 30 29 25 19 16 13 10 12 15 19 20 23 26 25 23 24 24
17 15 15 20 23 26 30 30 29 29 29 27 25 24 23 22 20 19 17 15 15 14 11 10 9 7 4 5 5 3 5 7 6 6 8 10 10 10 8 5 5 5 5 4 5 8 10 11 12 14 13 14 15 16 16 15 14 14 15 16 17 20 24 27 30 32 32 33 33 33 32 27 21 18 15 12 10 12 16 21 24 24 25 25 25
20 18 17 21 24 26 29 30 30 30 29 28 26 25 24 22 21 20 19 16 17 16 13 11 9 8 8 7 6 5 7 8 7 6 6 8 9 11 10 8 5 2 3 5 4 4 6 9 10 12 12 13 13 14 15 15 15 16 16 17 17 19 21 24 27 29 31 33 34 35 34 32 29 27 25 20 17 14 13 17 21 23 25 27 28
20 21 20 22 25 26 28 30 30 29 28 28 27 26 24 23 22 21 20 18 18 17 14 12 10 10 11 8 5 7 8 6 4 4 5 6 7 9 9 9 9 6 5 4 4 4 4 6 8 10 11 12 13 14 14 14 15 16 17 18 20 21 21 22 23 25 27 30 32 33 31 30 33 33 30 28 26 22 15 13 16 19 24 27 28
20 22 20 21 25 27 28 29 30 29 28 28 27 26 25 24 23 23 21 19 19 19 16 14 13 13 13 9 8 9 8 4 3 6 7 6 7 7 8 9 8 7 7 7 6 6 6 6 7 7 9 11 14 16 17 18 18 19 20 20 21 22 22 22 23 23 25 26 28 30 29 30 33 35 37 36 33 28 23 17 14 14 20 25 27
20 21 20 20 23 27 28 28 29 29 28 27 26 26 25 25 24 24 22 21 20 20 18 16 16 16 15 12 12 11 10 9 7 8 9 8 7 7 8 7 7 7 9 10 10 9 11 11 11 11 11 12 13 14 17 18 19 19 21 22 23 24 23 23 24 24 25 25 26 28 30 33 35 36 38 39 37 33 29 25 21 17 17 20 24
18 19 20 20 21 24 27 27 28 28 28 27 26 26 26 25 26 25 23 22 21 21 20 18 18 17 16 16 15 14 14 13 11 10 10 10 9 9 9 7 7 8 9 9 9 10 13 14 14 15 15 15 15 15 15 16 17 17 19 21 23 24 23 23 25 26 26 27 28 29 30 33 35 35 35 37 37 35 32 31 31 26 21 20 19
18 19 20 22 23 23 25 26 27 28 29 28 27 27 26 25 26 26 24 23 22 22 21 20 20 18 18 19 18 17 16 15 14 13 13 12 11 10 10 9 9 9 9 10 11 13 16 16 17 18 18 19 19 19 19 18 18 19 20 21 22 23 23 23 25 27 28 28 28 29 31 33 35 36 35 35 35 35 34 34 35 33 29 26 21
16 18 20 24 26 24 25 26 27 28 28 29 28 27 26 25 25 25 24 23 23 23 22 22 22 20 19 20 19 19 18 17 16 16 15 14 12 11 12 13 13 12 13 14 15 17 19 19 20 21 21 22 23 23 22 22 22 22 22 23 23 24 25 25 26 28 29 28 27 28 30 31 33 35 36 36 36 35 35 35 34 32 31 29 27
17 17 18 25 29 27 27 27 27 28 28 28 28 27 26 25 25 24 24 23 23 23 23 23 22 21 20 20 20 20 19 19 18 17 17 16 14 14 15 15 15 16 16 17 18 19 21 22 23 24 25 26 27 27 25 23 23 23 24 25 26 27 27 28 29 29 30 30 28 28 29 30 30 32 35 37 39 38 37 36 33 30 29 28 29
17 17 16 23 32 30 29 29 27 29 30 29 28 28 27 26 25 24 24 23 23 24 23 22 21 20 20 20 21 21 20 20 19 18 18 17 16 16 17 17 18 18 19 20 20 21 22 23 24 26 28 28 27 27 26 24 22 22 24 26 27 28 27 28 29 30 30 31 32 30 29 29 29 30 33 35 38 41 40 38 35 32 31 30 30
14 15 13 19 31 31 29 30 29 29 29 29 29 29 28 27 26 25 23 22 23 24 22 20 19 19 19 19 20 21 22 21 20 19 19 19 18 18 18 19 19 20 21 21 23 24 24 24 26 28 28 27 25 24 24 22 21 21 24 26 26 26 26 26 27 29 31 31 32 32 32 31 30 31 33 33 34 40 43 42 41 38 36 35 33
12 13 14 15 26 30 28 28 29 28 27 27 28 29 28 28 27 25 23 22 23 22 19 18 18 18 18 19 20 21 22 22 21 20 20 20 20 20 20 20 21 22 22 23 24 25 25 26 27 28 27 25 23 23 22 22 21 20 21 25 26 24 23 24 25 27 29 29 29 31 33 34 33 31 31 32 34 37 41 44 44 43 41 40 38
13 13 15 16 19 25 27 27 26 26 26 25 26 26 26 27 26 24 22 20 20 19 18 17 17 18 18 19 20 21 22 22 22 21 21 21 21 21 21 22 22 23 23 24 25 26 26 27 27 27 26 24 23 22 22 21 21 22 22 23 25 25 23 24 26 26 25 26 28 29 31 34 35 34 32 32 34 35 38 40 41 42 43 42 41
14 13 15 18 18 20 24 25 24 24 25 25 25 26 26 25 24 22 20 19 20 20 19 18 18 18 19 19 20 21 22 22 22 22 22 22 22 22 23 23 23 23 24 25 26 27 27 26 26 25 25 24 23 22 22 21 21 22 23 24 24 25 24 24 25 26 24 24 26 27 29 31 33 36 36 34 33 34 36 38 39 40 42 43 42
14 15 15 16 18 19 21 23 22 23 26 27 27 27 26 24 22 22 21 20 22 22 21 20 19 19 19 20 21 21 22 22 23 23 23 22 22 22 23 23 23 24 25 25 26 26 26 26 26 25 25 24 23 22 21 21 21 22 23 24 24 24 24 23 23 25 25 24 25 26 27 28 29 32 35 36 36 34 34 36 37 38 40 40 42
11 14 16 16 17 19 21 23 23 24 28 31 31 29 27 25 23 23 23 23 23 23 23 21 20 20 20 20 21 22 22 23 23 24 23 22 22 22 22 23 23 24 25 25 26 26 25 26 26 26 25 24 24 23 21 21 22 22 23 23 23 23 24 25 25 26 26 25 25 27 27 27 28 28 31 33 36 35 34 35 35 35 36 37 39
12 15 16 16 17 20 21 22 24 27 30 32 32 30 26 25 24 24 24 22 22 23 22 21 20 20 20 20 21 22 23 23 24 24 24 23 22 22 21 22 23 24 24 24 24 24 24 25 26 26 25 24 24 23 22 22 22 22 23 24 24 24 25 26 27 28 29 27 27 27 28 28 28 29 30 31 33 34 35 36 36 35 36 37 39
13 15 18 18 17 19 22 24 24 27 30 31 30 29 27 26 25 24 23 20 20 22 22 21 20 20 20 21 22 22 23 23 24 24 23 22 21 20 20 21 22 23 23 23 23 23 24 25 26 26 25 24 24 24 23 23 23 23 23 24 25 26 26 27 27 28 30 30 29 29 29 28 29 29 29 30 32 33 34 35 37 38 38 38 39
20 16 16 20 22 22 22 24 26 26 27 28 29 28 27 27 26 24 23 20 19 22 21 20 20 20 20 21 21 22 22 23 23 23 22 21 20 19 20 20 21 22 22 22 23 23 24 24 25 25 25 25 25 24 23 23 23 23 24 25 25 26 27 28 28 28 29 29 31 31 30 29 30 31 31 29 30 31 33 35 36 38 39 38 38
21 20 20 20 22 26 26 26 26 25 24 24 25 25 24 25 25 23 22 20 19 22 22 20 20 20 20 21 21 21 21 21 21 21 20 19 19 19 19 19 20 21 21 22 23 23 23 24 24 25 25 25 25 25 24 24 24 24 25 25 26 27 28 29 30 30 30 30 30 31 32 31 31 32 33 32 30 28 31 35 37 38 38 37 37
20 24 24 24 24 24 26 30 28 24 23 23 25 24 23 23 24 23 21 20 20 22 22 20 20 21 21 20 20 20 20 19 19 19 18 18 18 18 18 19 19 20 20 22 23 24 24 24 25 25 25 25 26 25 25 25 25 26 26 26 27 28 28 29 30 31 31 32 32 32 33 33 33 33 33 35 35 32 29 31 35 38 38 37 37
21 24 28 28 26 24 24 27 28 26 24 25 26 24 22 24 24 22 21 20 20 21 21 20 21 21 20 20 19 18 18 17 17 17 17 17 17 18 18 18 19 20 21 22 23 24 24 24 24 25 25 25 26 26 26 26 26 26 26 26 27 28 28 29 30 31 32 32 33 33 34 35 36 35 34 33 35 36 34 32 33 36 38 39 40
25 25 28 30 30 25 22 25 25 26 25 24 23 23 22 24 23 21 21 21 20 20 20 20 21 21 20 19 17 16 16 16 17 18 18 18 18 18 18 19 20 21 22 22 22 22 22 23 24 25 26 26 27 28 28 28 27 27 27 27 27 27 27 27 28 30 32 33 33 35 36 37 38 38 37 35 34 36 38 37 35 33 35 38 40
30 27 27 29 30 29 26 27 28 25 27 25 21 21 22 23 23 21 21 21 20 19 20 20 20 20 20 19 17 16 17 17 17 17 17 17 17 18 19 20 21 21 21 21 21 21 22 24 25 25 26 27 28 29 29 29 29 29 30 32 32 32 31 30 29 30 31 32 33 34 35 37 38 39 39 39 39 38 39 41 40 37 34 34 37
31 28 27 29 30 30 29 29 31 33 28 26 22 20 22 22 21 21 21 21 19 18 19 19 19 19 19 18 17 16 16 16 16 15 15 16 16 18 19 19 20 20 21 20 21 22 24 25 25 26 27 27 28 29 29 29 29 30 32 33 36 37 37 37 37 36 35 34 33 34 36 37 37 37 39 40 41 42 42 44 45 43 40 38 37
30 30 27 28 31 32 30 30 32 35 29 25 24 21 22 21 21 21 20 19 18 17 17 18 18 17 16 15 15 14 14 13 13 13 15 16 17 18 19 19 20 20 20 21 22 25 26 26 26 27 28 29 30 30 30 30 30 31 33 34 37 38 40 41 42 42 41 40 37 36 37 38 37 37 36 37 39 40 41 43 45 47 46 45 43
31 33 32 31 30 33 34 32 31 31 27 24 24 22 22 21 20 20 19 19 18 16 16 17 17 15 15 14 13 12 12 11 12 14 15 16 18 19 19 20 20 20 21 22 24 26 26 26 26 27 29 30 30 30 30 31 32 33 34 35 38 39 41 42 43 43 44 43 41 40 40 40 40 39 37 37 38 37 37 37 40 45 48 49 49
30 32 36 38 32 29 32 27 25 28 27 25 23 22 21 20 20 19 18 18 18 16 16 16 16 15 13 12 11 11 11 11 13 14 15 17 19 19 20 20 19 20 22 25 28 30 29 27 26 27 29 30 31 31 31 31 33 34 34 36 39 41 42 44 44 45 44 44 43 42 42 42 42 41 41 39 37 36 34 33 34 39 44 48 49
31 31 37 40 33 26 29 24 21 26 27 24 22 21 20 19 19 18 17 17 17 16 16 15 14 13 12 11 10 9 10 11 13 14 16 18 18 19 19 19 19 21 24 28 31 32 31 29 28 28 29 32 32 32 32 31 31 32 33 35 39 42 44 46 47 47 47 47 46 46 45 44 44 43 43 42 40 36 34 33 33 34 38 42 45
31 32 36 36 31 27 29 26 22 24 26 23 22 20 19 19 19 17 17 17 17 15 14 14 13 12 10 9 8 8 10 12 13 15 16 16 17 17 18 19 20 23 27 30 32 31 30 31 30 29 30 33 33 33 32 32 32 33 34 36 38 41 43 46 47 47 47 47 48 49 50 49 46 45 44 44 44 41 38 37 36 33 33 36 41
33 31 32 32 30 28 27 25 23 26 26 23 19 19 18 18 18 17 17 17 15 13 12 11 11 10 9 7 7 8 10 12 13 14 15 15 16 17 18 18 21 24 27 28 29 31 31 31 30 29 31 33 34 33 33 33 34 35 37 39 41 42 44 46 47 47 45 44 44 44 46 48 48 47 45 43 44 44 43 43 41 37 33 32 36
34 33 31 27 24 24 26 26 27 27 25 21 19 19 19 18 17 17 17 15 14 13 11 9 9 8 7 6 6 8 10 12 12 13 14 15 16 17 18 20 23 26 28 28 29 31 31 29 28 29 31 33 34 34 33 34 34 34 36 38 40 42 44 46 47 47 46 45 44 42 41 43 45 46 44 42 42 44 45 46 46 42 38 35 33
32 33 32 27 22 21 28 30 27 24 21 19 20 19 18 18 18 17 15 14 13 12 10 8 7 6 5 6 8 9 10 10 11 12 13 15 17 18 19 20 22 26 28 30 31 33 31 29 29 30 30 31 33 33 32 33 34 34 35 38 40 42 45 45 46 47 47 46 46 44 42 42 43 43 43 43 42 42 44 47 47 45 44 40 34
23 23 25 23 18 14 23 26 23 22 21 18 18 19 19 18 18 16 15 14 13 10 9 7 6 4 5 7 7 7 8 9 10 11 14 16 17 17 18 21 23 26 28 30 30 31 31 29 29 30 30 30 31 32 32 32 34 34 35 38 40 43 45 45 45 45 46 46 46 46 45 45 44 44 43 44 44 44 46 47 47 48 48 42 34
10 7 9 13 11 10 14 17 18 20 20 17 17 19 19 18 17 16 14 13 11 9 7 5 3 5 5 5 5 6 8 10 11 13 14 15 15 16 19 22 25 27 30 30 29 29 29 29 29 29 29 28 28 30 31 33 34 34 33 34 37 40 42 44 45 45 45 47 47 47 47 46 44 44 44 44 44 45 47 48 48 51 52 45 36
7 4 6 11 13 12 12 14 16 16 16 17 19 19 18 18 17 15 14 12 11 8 5 4 4 5 5 5 6 7 9 11 12 12 13 14 16 16 18 21 25 29 30 29 28 27 28 30 30 29 29 29 29 31 34 35 36 36 35 33 34 37 38 40 43 44 45 46 47 47 48 46 44 44 44 43 43 43 44 46 48 51 53 47 40
6 6 8 8 9 10 10 11 12 12 12 16 19 19 19 18 17 15 14 12 10 7 4 3 5 4 3 3 5 7 9 10 11 12 14 15 16 16 18 23 26 27 26 25 26 27 29 31 31 31 32 33 35 37 38 39 38 38 37 34 32 32 34 37 40 44 45 46 47 48 48 47 45 44 43 41 41 41 42 42 42 45 51 49 43
11 9 6 4 4 8 8 7 7 9 12 15 18 19 19 18 16 15 13 11 9 7 5 5 4 2 1 4 5 6 8 9 10 13 14 14 15 17 20 22 23 22 24 26 29 31 33 33 33 35 38 40 40 41 41 41 41 41 39 37 34 31 31 33 38 42 44 46 48 48 48 47 46 44 42 40 40 40 39 38 34 35 45 51 47
11 9 6 5 7 8 8 7 6 9 12 15 18 19 19 18 16 15 13 11 8 6 5 4 1 1 2 4 5 5 7 8 10 12 13 13 14 18 20 21 23 25 28 32 33 35 36 36 36 38 42 43 42 42 44 45 45 43 41 40 39 37 35 35 37 41 43 45 46 46 45 44 43 41 40 40 39 38 36 35 32 30 37 49 50
6 8 9 9 8 7 6 7 7 9 13 15 17 18 18 17 16 15 14 11 8 7 5 3 2 2 3 5 5 6 8 10 11 12 13 13 15 18 19 22 25 28 30 32 35 37 37 38 38 39 41 42 42 44 47 48 46 45 43 42 42 42 39 36 36 39 42 43 43 42 41 41 41 40 40 40 40 39 37 36 34 30 34 44 49
9 10 7 7 5 4 5 7 6 9 13 15 17 18 17 15 14 14 12 10 7 6 5 3 3 3 4 5 6 7 9 10 11 13 14 14 15 17 20 24 27 28 30 33 37 38 38 38 38 39 40 41 43 45 47 47 47 47 46 45 45 44 40 36 34 35 37 38 38 38 39 39 39 40 41 41 42 41 39 38 36 32 33 42 47
9 7 5 6 7 5 6 8 7 9 13 17 18 18 18 16 13 12 12 10 8 7 6 4 3 3 2 6 8 7 8 10 12 14 15 15 17 19 23 25 26 27 29 33 38 40 38 35 35 37 39 41 43 44 45 46 46 47 47 46 45 43 40 35 31 30 30 31 31 32 35 36 37 40 41 41 42 42 37 34 33 32 34 39 43
6 6 6 7 8 8 9 10 10 11 14 16 16 17 20 18 13 12 12 10 6 7 8 5 3 3 2 8 10 7 8 11 13 14 15 16 18 21 23 24 25 26 29 33 38 40 35 32 33 36 37 39 41 43 44 44 44 45 44 43 42 41 37 32 27 24 24 26 26 26 29 31 34 37 39 38 39 38 32 28 28 30 32 36 38
6 7 6 5 7 8 9 12 13 13 15 14 13 17 19 17 13 13 12 9 5 5 7 4 2 2 5 10 11 9 11 13 13 14 16 17 18 20 22 23 24 25 27 32 38 38 33 31 31 33 35 36 37 39 41 41 41 42 41 39 38 37 31 25 22 20 20 22 22 22 25 29 31 32 33 34 34 33 30 27 27 30 32 35 36
7 7 7 6 6 6 9 13 12 12 15 15 13 15 16 15 14 12 10 8 5 4 4 3 3 4 7 10 10 11 13 14 13 14 16 17 17 19 21 23 22 23 27 33 38 38 34 32 31 31 34 35 34 35 36 37 38 39 37 35 34 31 25 19 15 14 15 18 19 18 22 26 27 27 29 30 28 28 29 28 28 30 33 36 37
Wind_Direction
203 195 186 183 184 179 181 187 185 183 183 181 177 176 181 185 189 196 196 175 117 116 156 148 136 142 108 94 90 73 47 49 351 349 84 205 227 230 231 221 225 231 228 231 236 237 240 237 236 238 235 232 234 235 233 232 236 237 236 237 240 241 243 240 231 235 242 233 232 249 242 245 249 246 244 233 225 228 226 223 219 221 231 238 249
213 201 188 184 183 181 182 186 189 189 188 188 184 182 191 200 207 214 215 200 168 176 198 187 170 166 164 122 107 142 13 61 44 15 31 7 257 226 224 223 230 235 231 233 235 239 244 240 237 240 240 237 236 237 237 235 234 236 238 239 240 243 246 247 242 239 245 237 230 246 251 249 246 240 244 244 235 230 230 232 225 220 226 232 240
223 214 198 185 181 182 182 186 192 196 197 195 189 187 191 200 208 215 215 212 205 201 212 221 219 204 211 253 90 191 346 36 33 21 23 24 38 74 221 233 236 232 232 234 234 241 246 246 243 241 241 243 244 246 245 242 237 236 238 239 240 244 247 251 251 245 246 242 232 242 250 244 243 235 229 235 241 238 232 234 233 228 228 231 234
226 224 216 187 179 182 182 187 194 196 199 199 196 194 195 199 205 213 214 217 222 214 223 242 248 253 247 315 17 71 70 47 36 23 16 13 37 118 216 259 266 246 237 228 218 228 233 241 248 243 240 241 246 253 256 257 254 247 246 246 243 244 245 247 251 250 247 241 235 240 244 236 232 234 235 238 242 241 232 229 233 233 231 231 231
223 229 227 187 175 182 185 191 196 196 199 201 203 202 202 203 202 213 220 220 228 223 229 250 254 256 258 350 24 64 93 62 29 23 19 25 29 245 241 272 291 260 240 230 221 220 216 221 234 239 237 235 237 242 251 262 265 257 253 252 248 245 246 246 247 250 247 243 238 234 233 232 231 233 243 243 241 241 234 228 232 232 229 230 232
232 236 218 178 174 185 188 194 197 198 201 203 208 207 207 209 203 210 221 223 234 237 235 245 250 256 267 47 58 91 158 264 346 5 10 24 25 11 317 291 320 334 271 238 228 229 226 225 227 232 236 235 234 232 235 246 259 266 262 257 251 245 247 250 248 249 247 245 243 236 229 226 228 227 230 240 245 249 243 232 233 233 227 228 232
232 232 205 178 183 189 190 196 199 200 202 202 210 210 207 211 205 208 221 225 234 243 243 244 250 251 226 196 214 209 220 258 310 341 355 10 17 19 16 3 356 343 321 293 253 240 239 241 237 235 239 241 239 235 234 235 239 251 259 260 257 249 248 249 249 249 247 244 244 241 235 230 231 239 245 254 259 255 243 233 233 235 232 230 230
216 217 206 189 191 195 194 198 201 201 202 200 208 211 206 208 207 209 219 225 235 245 246 244 246 242 230 226 233 219 219 256 301 320 343 360 7 14 17 15 14 349 314 307 302 276 249 252 252 244 242 245 247 244 241 240 240 241 246 252 256 254 252 251 250 250 249 247 245 243 240 235 234 241 249 253 256 258 249 236 235 236 235 234 234
206 206 209 197 193 199 200 200 202 202 201 200 205 209 207 207 206 210 218 221 233 245 247 243 239 235 241 245 224 213 231 268 303 297 324 349 351 359 4 4 8 9 3 343 324 320 291 273 270 258 249 247 249 249 244 241 242 242 244 247 251 253 255 255 254 253 252 251 249 247 244 239 235 238 244 243 244 251 252 244 244 242 236 234 237
202 199 205 203 197 199 201 200 201 201 201 201 202 206 207 206 204 210 216 218 232 244 248 245 236 236 247 246 222 224 244 261 244 258 292 324 333 342 350 354 356 347 345 350 345 337 333 327 318 296 276 265 258 254 249 244 241 239 237 239 245 248 249 251 254 256 255 253 252 250 245 240 238 240 241 237 235 241 246 246 246 244 241 238 236
197 193 201 206 199 195 197 199 199 199 200 199 200 204 207 207 204 208 212 214 229 243 248 247 242 243 248 245 241 245 255 259 258 269 286 308 317 319 329 338 337 326 327 334 338 335 333 332 330 324 313 301 288 272 259 253 251 250 247 243 244 247 247 247 249 252 253 252 250 249 244 241 241 243 242 237 234 237 240 242 241 239 248 251 243
195 191 197 200 195 190 192 197 197 197 197 196 199 204 208 209 205 207 212 214 227 242 247 249 249 250 250 251 255 257 263 267 269 273 278 291 300 303 312 320 315 313 315 319 321 315 315 318 319 319 317 313 310 301 285 267 256 255 257 254 252 253 252 250 249 249 251 251 250 248 245 243 242 245 245 239 237 239 238 241 246 248 249 249 249
198 194 196 193 188 188 191 194 195 194 195 196 200 205 208 211 208 210 216 217 225 240 246 249 253 253 251 256 262 262 265 267 266 269 274 283 292 297 302 304 300 296 293 294 295 295 301 308 311 313 313 311 309 306 299 286 269 257 254 255 254 254 252 250 250 250 252 253 252 250 248 247 245 245 247 241 236 239 240 242 247 250 250 246 248
208 203 199 189 184 186 190 193 194 194 196 198 201 208 210 212 213 215 221 221 224 237 246 248 254 256 253 257 261 261 262 262 263 266 269 275 281 285 289 297 300 298 294 294 296 299 303 307 309 309 309 308 306 302 297 290 282 271 261 254 252 253 252 249 248 248 252 255 255 253 250 250 248 246 246 243 236 236 238 240 243 245 247 247 249
216 218 210 190 183 185 187 190 194 194 199 202 205 213 215 215 218 218 220 221 223 234 245 249 253 256 256 256 257 258 259 258 258 260 262 268 273 277 284 292 296 297 297 299 299 301 304 307 309 310 310 308 305 303 298 291 283 276 268 260 255 254 253 252 250 248 251 254 255 256 254 252 250 247 247 244 240 238 238 238 238 241 244 246 249
211 222 223 188 179 185 186 188 194 197 203 207 209 215 218 217 220 221 221 222 225 236 245 250 255 257 257 256 255 255 255 256 256 255 257 264 270 276 283 288 293 296 298 299 301 302 304 307 309 311 311 307 303 299 297 294 285 272 267 263 260 258 254 253 254 252 251 252 252 254 257 255 254 252 250 246 242 241 241 239 238 240 245 251 254
214 219 225 186 177 186 191 193 198 202 206 210 211 215 219 218 220 223 224 221 225 237 247 251 255 257 258 258 255 254 253 253 254 254 256 264 271 277 281 286 290 293 296 299 302 305 307 309 311 313 311 306 301 297 294 294 290 277 265 261 263 263 258 253 254 256 254 254 254 254 255 256 256 255 252 249 245 242 243 242 242 243 245 251 255
236 224 226 201 183 186 192 197 201 203 207 210 212 214 218 220 222 226 227 223 226 237 247 252 255 256 258 259 257 254 251 250 250 251 256 264 271 276 280 285 288 292 297 300 303 305 307 309 313 314 312 307 301 297 295 295 294 289 276 264 260 261 260 255 252 256 258 257 257 256 255 256 256 255 253 252 249 245 244 244 246 247 247 249 250
242 234 226 220 202 190 188 192 196 201 205 208 210 212 216 220 223 226 228 225 228 237 244 249 252 254 257 261 260 256 252 250 249 250 256 264 271 276 279 283 288 292 296 300 302 305 308 311 313 313 310 304 296 291 291 291 289 289 286 276 263 256 257 257 252 252 255 260 260 258 257 257 255 256 255 254 251 247 247 248 248 249 248 249 247
226 239 234 222 214 200 190 190 195 202 206 207 206 208 214 221 220 219 222 221 223 232 242 246 249 253 258 261 261 259 255 252 251 253 257 263 268 272 277 282 287 292 296 300 304 307 310 310 309 308 306 301 292 285 284 285 283 282 285 286 278 264 259 262 260 254 252 258 262 261 259 258 257 257 257 256 254 251 251 250 251 252 249 248 247
212 227 238 225 212 205 198 197 202 208 208 203 202 206 214 220 218 216 220 221 221 229 239 245 248 252 257 261 261 259 256 253 253 256 258 262 266 270 276 282 288 293 298 302 306 309 309 307 304 302 301 297 290 282 277 277 277 276 277 281 283 276 266 262 263 260 255 254 258 261 260 259 258 258 258 258 256 255 255 253 251 251 248 247 246
207 219 234 228 214 208 204 202 204 208 204 198 202 211 216 218 219 220 224 225 223 229 238 244 247 250 254 258 258 255 253 252 253 256 259 262 266 272 278 285 291 296 301 304 307 308 306 303 301 298 296 294 289 282 276 274 275 276 277 275 276 277 272 265 260 258 255 251 252 256 258 257 257 257 257 258 257 254 253 255 253 249 248 249 248
216 217 228 231 222 213 208 206 206 206 202 198 205 213 216 219 223 226 229 230 226 229 237 242 243 247 250 250 250 249 248 249 250 254 259 263 268 275 282 289 295 299 302 304 303 302 299 296 296 295 292 288 285 281 277 274 271 270 272 274 273 272 273 271 267 263 258 251 248 251 255 255 255 256 256 255 256 255 252 253 252 252 254 253 252
265 232 226 232 232 223 212 209 208 203 199 202 208 213 215 219 225 229 232 232 225 223 231 238 239 242 244 243 243 242 242 246 250 253 258 264 271 279 285 291 296 298 299 299 297 294 292 291 290 291 289 285 282 280 278 277 274 270 268 269 271 271 270 270 270 270 267 260 252 249 251 253 253 254 256 255 254 254 253 252 251 251 256 256 253
301 287 259 241 233 230 223 218 211 197 191 198 204 208 214 221 226 229 232 230 220 217 224 232 234 235 236 238 238 237 239 243 248 253 258 265 273 280 286 291 293 294 294 294 291 288 288 288 287 286 285 282 280 278 277 277 276 274 272 269 270 271 269 269 267 267 269 268 262 255 250 251 253 252 253 255 255 254 252 252 251 250 251 254 254
281 284 288 278 253 236 228 228 221 199 188 197 206 210 215 222 226 224 225 228 217 213 220 223 224 225 229 234 236 236 237 240 246 253 259 267 275 280 285 289 289 289 291 289 287 286 288 287 285 283 282 280 279 278 277 277 276 274 271 268 268 268 269 270 270 267 267 267 266 263 255 250 251 253 252 251 252 255 254 251 251 251 249 250 251
266 256 264 279 279 260 239 235 228 207 198 206 211 213 213 215 219 217 218 222 215 212 217 216 214 217 222 230 235 236 239 242 247 254 260 268 275 279 283 287 286 284 284 284 284 284 285 284 282 280 279 278 279 279 278 277 277 275 273 270 267 265 265 265 266 268 270 268 266 266 262 254 249 250 253 252 249 250 254 253 252 251 250 247 247
269 256 251 255 267 276 269 254 233 212 213 218 206 201 204 205 210 213 213 215 212 211 212 209 208 213 218 225 231 234 240 245 248 253 261 268 275 282 285 285 284 282 281 283 285 286 286 285 283 282 282 282 281 280 279 277 276 275 274 274 273 271 269 268 265 263 265 267 266 265 265 261 254 249 249 253 252 249 250 254 254 253 252 249 247
263 255 251 250 251 256 268 272 251 221 222 226 204 193 200 201 203 210 209 208 209 208 205 204 206 209 214 218 222 227 233 239 245 254 265 274 282 288 288 284 283 283 284 285 286 287 286 284 282 282 282 281 280 280 279 277 276 275 273 272 271 269 269 270 270 267 263 263 264 264 264 265 262 255 247 245 248 249 249 250 251 251 252 251 250
268 256 248 250 248 239 242 263 270 252 232 223 204 193 197 196 196 201 202 203 207 206 203 204 205 206 211 214 218 226 232 240 252 263 274 282 286 288 286 285 285 286 287 288 287 285 282 279 279 279 278 276 274 274 273 271 270 271 270 269 267 265 263 262 264 266 264 261 260 260 262 263 265 264 256 246 241 242 245 245 246 247 247 250 252
276 266 253 252 249 241 235 242 264 271 248 217 201 196 193 191 191 192 193 199 204 206 206 205 202 204 211 217 221 228 236 248 261 271 278 281 282 282 283 283 285 286 287 287 285 283 281 280 281 280 279 277 274 272 271 268 268 268 268 270 270 269 268 265 264 263 262 260 260 259 258 258 260 264 265 258 248 242 241 241 242 243 243 246 251
289 282 271 261 249 242 237 231 246 267 257 215 199 197 191 188 188 186 186 191 198 205 205 200 198 202 208 214 219 225 235 249 260 265 270 274 275 276 278 281 283 284 284 284 282 282 282 283 284 283 281 279 276 275 273 270 268 268 269 269 270 271 270 269 268 266 264 262 261 261 259 256 254 256 261 264 258 249 246 245 242 241 241 242 245
300 297 290 283 264 243 235 229 233 251 248 217 200 195 191 189 187 185 182 184 190 196 194 192 194 199 203 209 216 225 235 246 256 262 268 272 271 273 279 283 283 283 285 284 283 283 284 286 288 288 287 284 281 279 276 272 267 265 265 267 267 269 270 269 269 269 267 264 262 262 262 259 255 252 253 258 260 255 252 254 251 245 242 241 240
295 297 294 294 285 252 232 226 222 226 226 215 200 192 191 189 184 183 182 181 184 185 185 189 194 195 201 210 215 225 237 248 259 266 269 270 270 276 284 285 283 286 287 284 283 286 287 288 291 291 290 290 287 284 282 278 273 269 266 265 265 266 268 268 268 267 266 264 262 261 262 261 260 256 252 253 258 257 253 257 260 255 249 246 243
291 290 287 291 292 265 235 218 203 202 208 207 197 189 187 186 182 182 182 181 181 180 181 188 192 193 201 210 217 232 247 257 265 269 270 271 274 282 286 286 286 289 289 286 288 291 290 290 292 291 289 288 287 286 286 283 281 278 274 271 269 268 268 269 269 268 267 265 262 260 261 261 261 259 255 250 251 252 249 249 254 255 253 251 249
297 292 287 289 290 268 236 213 196 196 199 198 193 187 183 181 180 180 182 181 180 181 184 188 191 194 201 211 225 242 254 262 267 270 272 274 279 284 288 288 288 288 289 291 293 294 292 292 292 290 289 289 288 287 287 286 284 282 280 278 275 272 271 270 269 269 269 268 265 263 261 259 258 259 257 253 248 246 242 241 244 248 249 250 251
296 291 288 287 281 261 236 215 198 192 188 184 183 184 181 178 179 179 179 179 180 183 186 188 193 198 207 221 239 253 263 269 272 273 274 277 282 286 289 291 291 291 293 295 297 297 295 294 292 290 289 288 288 287 286 284 282 280 278 277 276 275 273 272 270 269 268 268 267 265 260 257 257 256 257 256 252 247 241 238 241 245 246 247 250
297 287 281 281 271 247 223 204 188 178 175 177 182 184 180 178 179 177 176 179 182 183 183 189 197 200 204 224 246 258 266 270 272 275 279 282 285 288 290 291 293 293 293 296 299 300 297 293 290 289 288 287 287 287 286 285 285 283 282 281 279 277 275 274 273 271 269 267 266 264 260 257 255 254 255 256 256 252 246 240 239 244 249 247 246
298 286 277 277 268 229 196 182 172 165 169 180 184 180 176 177 177 176 177 180 178 179 184 188 188 191 212 246 259 267 271 272 277 281 283 285 289 292 294 293 293 293 295 298 299 298 295 293 290 290 290 290 290 291 291 291 290 288 287 286 285 283 279 277 276 273 271 269 265 262 259 256 254 253 253 253 252 253 251 245 240 244 251 250 244
302 286 269 263 259 214 171 160 158 161 168 176 178 176 174 175 175 175 178 177 174 179 184 175 176 215 262 274 275 277 278 281 286 287 287 291 295 299 300 297 295 296 299 302 301 298 295 294 294 294 293 293 293 293 293 292 290 289 287 285 284 283 281 280 278 275 273 270 266 264 262 259 258 257 256 254 253 251 250 247 242 240 245 246 243
298 287 230 202 189 166 152 157 167 172 173 174 174 173 171 171 174 175 173 171 170 176 180 179 217 267 275 272 269 273 283 293 298 297 297 302 303 304 303 300 299 300 301 302 303 300 297 297 297 297 296 294 293 294 294 297 299 301 298 292 285 282 282 281 279 275 273 271 268 266 265 263 261 260 258 258 259 257 253 250 243 235 235 238 238
280 277 214 182 174 175 169 166 170 172 174 174 172 170 169 170 172 171 167 167 167 165 168 198 247 260 257 262 279 300 311 315 316 312 308 307 308 307 301 296 299 303 303 304 305 303 301 301 301 301 299 298 297 299 302 306 311 312 310 303 292 283 281 282 279 275 273 271 268 267 267 265 263 261 259 259 260 260 259 255 246 234 230 230 231
269 237 216 190 184 188 174 162 164 163 166 173 172 169 169 168 167 165 162 161 159 152 155 204 232 238 256 297 321 332 330 324 320 313 309 308 308 303 297 298 303 308 310 310 311 310 307 305 304 304 305 305 305 307 310 312 315 315 314 311 302 287 278 278 277 275 273 272 270 268 266 264 262 261 260 258 257 258 258 256 250 238 228 225 227
240 233 218 183 201 207 188 179 183 169 167 174 172 167 166 164 162 164 164 161 160 162 180 209 225 235 325 350 347 338 330 324 318 313 312 312 307 300 301 306 312 319 322 320 318 316 313 309 305 305 307 310 310 310 311 314 316 317 316 315 311 299 285 277 275 273 273 272 270 267 264 262 261 259 259 257 254 252 253 255 255 244 228 223 227
222 237 248 236 246 233 195 173 174 171 172 175 171 167 164 161 160 160 155 155 165 178 186 191 177 55 21 7 359 344 337 336 333 330 328 320 309 305 308 313 316 321 327 327 324 321 317 312 308 305 306 309 309 309 311 314 316 318 317 313 311 307 297 287 278 273 270 268 267 264 262 260 258 255 256 255 250 247 249 252 255 250 232 223 225
218 258 262 239 245 244 194 169 166 172 175 172 168 166 162 160 165 162 149 145 162 178 179 163 113 71 45 25 2 347 355 357 350 343 335 321 311 309 311 316 320 323 326 328 328 325 321 315 311 308 307 308 308 308 311 313 315 316 314 312 311 309 303 295 284 273 266 263 261 260 258 255 251 248 249 249 246 244 247 252 253 250 236 224 223
253 270 261 224 235 251 198 178 174 178 176 169 167 166 160 154 153 150 145 149 163 173 165 134 110 96 58 31 3 353 2 1 347 340 336 327 317 312 313 319 324 325 326 330 331 328 324 319 314 312 312 311 309 309 310 312 314 314 313 312 312 311 307 300 286 272 265 262 260 259 256 252 248 244 243 244 244 243 246 251 251 244 230 221 222
263 271 261 230 234 232 199 187 185 178 173 171 171 168 161 154 141 132 143 160 167 164 155 130 114 137 88 29 16 6 357 350 342 341 340 332 322 316 317 322 326 326 327 331 333 330 328 324 319 317 317 314 311 310 311 312 312 312 312 313 313 312 310 302 286 273 266 263 263 263 258 252 245 241 241 243 243 243 246 250 246 234 222 219 222
266 266 271 249 231 217 198 184 177 169 170 177 177 163 157 161 156 143 153 170 172 156 149 130 107 134 74 23 20 11 350 344 343 342 340 334 328 326 326 327 329 328 327 331 335 335 333 329 323 320 319 316 313 312 312 312 312 312 314 314 313 313 312 300 286 278 270 267 270 268 256 244 238 237 241 244 243 245 252 250 233 221 217 218 221
273 258 260 246 234 225 192 165 159 164 171 179 172 154 151 157 157 153 163 175 173 163 160 144 96 51 17 15 16 8 353 347 343 342 343 338 333 331 330 330 330 328 326 333 340 341 339 335 327 322 320 318 314 312 313 313 313 315 316 316 316 317 312 295 282 278 268 264 270 266 246 234 231 233 239 242 241 246 253 244 221 212 214 216 217
299 270 251 234 237 228 179 157 156 165 170 171 164 154 153 155 155 159 170 174 173 179 167 128 75 14 7 10 6 359 354 349 343 341 342 341 337 334 331 331 331 326 326 337 346 349 347 343 335 328 325 323 318 316 316 315 314 316 319 320 321 319 312 297 286 279 269 262 260 249 232 226 227 230 233 237 242 246 244 230 214 209 211 214 213